Content
SEND FEEDBACK

Daily
Averages
Monthly
Summary
United States of America

DOUBLE SPRINGS, ALABAMA


Home > North America > United States > Alabama
Elevation: 84 feet     Latitude: 34 09N     Longitude: 087 25W

WEATHER
 
SELECT A DAY
Number of Records: 143,734;   Date Range: 10/31/07 - 9/17/14
 
SHARE

PRINT THIS DATA

[ ← Previous Day ]
WEATHER ALMANAC - JANUARY 31, 2013
[ Next Day → ]
[ °C ]   °F
Weather ElementAverageHighLow
Temperature37.8 °F47.8 °F (2:56 pm)28 °F (4:56 am)
Dewpoint24.3 °F27.1 °F (6:56 pm)20.1 °F (1:56 pm)
Humidity60.7 %85 % (4:56 am)35 % (1:56 pm)
Barometer30.17 in30.24 in (10:56 am)30.08 in (1:56 am)
Wind Speed7.7 mph11.5 mph (1:56 pm)
Wind Gust20.7 mph (2:56 pm)
Weather ElementAverage
Visibility10 mi
Wind DirectionSSW (214.3 °)

Weather ElementTotal
Precipitation---
Heating Degree Days27.1 (Base 65)
Averaged from 21 records on January 31, 2013
WEATHER CONDITIONS BREAKOUT
WIND DIRECTION BREAKOUT
WEATHER BY HOUR - JANUARY 31, 2013
[ °C ]   °F
Local TimeTemperatureDewpointHumidityBarometerVisibilityWind DirectionWind SpeedGust SpeedPrecipitationEventsConditions
1:56 AM32.9 °F24.1 °F70 %30.08 in10.0 miVariable6.9 mphMostly Cloudy
2:56 AM31.1 °F24.1 °F75 %30.09 in10.0 miVariable4.6 mphClear
3:56 AM30.0 °F24.1 °F79 %30.09 in10.0 miWSW (250°)4.6 mphClear
4:56 AM28.0 °F24.1 °F85 %30.12 in10.0 miWSW (250°)8.1 mphClear
5:56 AM28.0 °F24.1 °F85 %30.13 in10.0 miWSW (240°)6.9 mphClear
6:56 AM28.0 °F23.0 °F81 %30.16 in10.0 miWest (260°)3.5 mphClear
7:56 AM30.0 °F23.0 °F75 %30.20 in10.0 miWest (270°)6.9 mphClear
8:56 AM33.8 °F24.8 °F70 %30.17 in10.0 miWNW (300°)9.2 mphClear
9:56 AM36.0 °F25.2 °F65 %30.22 in10.0 miVariable4.6 mphClear
10:56 AM39.9 °F25.2 °F56 %30.24 in10.0 miWNW (290°)10.4 mphClear
11:56 AM43.0 °F23.0 °F45 %30.22 in10.0 miWest (280°)9.2 mphClear
12:56 PM45.9 °F21.0 °F37 %30.19 in10.0 miWNW (290°)9.2 mphClear
1:56 PM46.9 °F20.1 °F35 %30.18 in10.0 miWSW (250°)11.5 mph16.1 mphClear
2:56 PM47.8 °F22.1 °F36 %30.18 in10.0 miWSW (240°)11.5 mph20.7 mphClear
3:56 PM47.8 °F24.1 °F39 %30.16 in10.0 miWSW (240°)11.5 mph19.6 mphClear
4:56 PM45.9 °F25.2 °F44 %30.16 in10.0 miSW (220°)10.4 mphClear
5:56 PM43.0 °F26.1 °F51 %30.17 in10.0 miSW (220°)6.9 mphClear
6:56 PM41.0 °F27.1 °F58 %30.19 in10.0 miSW (220°)5.8 mphClear
8:56 PM38.8 °F27.1 °F63 %30.21 in10.0 miSW (230°)6.9 mphClear
9:56 PM37.9 °F27.1 °F65 %30.21 in10.0 miSW (230°)6.9 mphClear
10:56 PM38.8 °F26.1 °F60 %30.20 in10.0 miSW (220°)6.9 mphClear
Hourly data recorded from K1M4, located miles away from Double Springs, Alabama







STORIES FROM OUR PARTNERS